Printer-friendly version
Follow the MPC on Twitter Follow the MPC on Facebook The MPC blog
Minor Planet Center

MPEC 2010-D19 : 2009 NJ

The following Minor Planet Electronic Circular may be linked-to from your own Web pages, but must not otherwise be redistributed electronically.

A form allowing access to any MPEC is at the bottom of this page.


Read MPEC 2010-D18 Read MPEC 2010-D20


M.P.E.C. 2010-D19                                Issued 2010 Feb. 17, 19:45 UT

     The Minor Planet Electronic Circulars contain information on unusual
         minor planets and routine data on comets.  They are published
   on behalf of Commission 20 of the International Astronomical Union by the
          Minor Planet Center, Smithsonian Astrophysical Observatory,
                          Cambridge, MA 02138, U.S.A.

             Prepared using the Tamkin Foundation Computer Network

                              MPC@CFA.HARVARD.EDU
          URL http://www.cfa.harvard.edu/iau/mpc.html  ISSN 1523-6714

                                    2009 NJ

                           Revision to MPEC 2009-N38

Additional Observations:
     K09N00J  C2010 02 16.37260 11 14 23.73 -12 01 16.3          20.8 R ED019926
     K09N00J  C2010 02 16.37976 11 14 22.94 -12 01 11.9          21.1 R ED019926
     K09N00J  C2010 02 16.38691 11 14 22.12 -12 01 07.1          21.1 R ED019926
     K09N00J KC2010 02 17.41457 11 12 29.77 -11 51 30.5          20.9 R ED019926
     K09N00J KC2010 02 17.42418 11 12 28.67 -11 51 24.3          21.2 R ED019926
     K09N00J KC2010 02 17.43378 11 12 27.63 -11 51 19.2          21.1 R ED019926

Observer details:
926 Tenagra II Observatory.  Observers P. R. Holvorcem, M. Schwartz.  Measurer
    P. R. Holvorcem.  0.81-m f/7 Ritchey-Chretien + CCD.

Orbital elements:
2009 NJ                                                  Earth MOID = 0.0797 AU
Epoch 2010 Jan. 4.0 TT = JDT 2455200.5                  MPC
M  39.14700              (2000.0)            P               Q
n   0.38524458     Peri.  132.51124     +0.88246170     -0.44994312
a   1.8705889      Node   254.65462     +0.37900797     +0.85283547
e   0.6587869      Incl.    8.17688     +0.27859344     +0.26499593
P   2.56           H   18.6           G   0.15           U   3
Residuals in seconds of arc
090711 J75 (2.7+  0.8-)   090714 B28  0.1-  0.1-    090724 H55  0.1+  0.1+
090711 J75  0.8+  0.2-    090714 B28  1.1-  0.1-    090724 H55  0.1+  0.1+
090712 J75  0.5+  0.7-    090714 J08  0.3+  0.4+    090724 H55  0.2+  0.1+
090712 595  0.1-  0.3-    090714 J05  0.1-  0.2+    090724 H45  0.0   0.1-
090712 A81  0.2-  0.1-    090714 J05  0.2-  0.0     090724 H45  0.2-  0.1-
090712 595  0.2+  0.0     090714 J05  0.4+  0.7+    090724 H45  0.0   0.1-
090712 A81  0.1-  0.0     090715 J28  0.1+  0.1+    090724 H45  0.1-  0.1-
090712 595  0.0   0.2-    090715 J28  0.2-  0.1+    090724 H45  0.2+  0.4-
090712 A81  0.0   0.2-    090715 J51  0.4+  0.6+    090724 H45  0.3+  0.2-
090712 J75  0.2-  0.4-    090715 J51  0.4+  0.4+    090724 H45  0.1-  0.2+
090712 J28  0.1-  0.2-    090715 J51  0.5+  0.0     090726 B88  0.9-  0.3-
090712 A81  0.2-  0.1-    090715 J95  0.0   0.0     090726 160  0.0   0.3-
090712 J75  0.3-  0.1-    090715 J95  0.2+  0.1+    090726 160  0.0   0.3-
090712 A81  0.1-  0.1-    090715 J95  0.0   0.0     090726 160  0.2-  0.3-
090712 J75  0.2-  0.1-    090716 H55  0.3+  0.0     090726 B88  1.2-  0.7+
090712 J28  0.1+  0.2+    090716 H55  0.1+  0.1-    090726 B88  0.3-  1.0+
090712 J75  0.3-  0.1-    090716 H55  0.3+  0.1+    090727 H55  0.1-  0.1+
090712 J75  0.1-  0.2-    090716 H26  0.5+  0.3-    090727 H55  0.1-  0.1+
090712 J75  0.2-  0.1-    090716 H26  0.7+  0.6-    090727 H55  0.2-  0.1+
090712 160  0.1-  0.0     090716 H26  1.1+  0.4-    090727 H55  0.0   0.1+
090712 204  0.1-  0.1-    090716 H26  0.7+  0.3-    090727 H45  0.1+  0.0
090712 160  0.2+  0.4-    090716 H26  0.2+  0.1-    090727 H45  0.3-  0.1-
090712 204  0.0   0.2-    090716 H26  0.2-  0.0     090727 H45  0.0   0.1+
090712 204  0.2-  0.1-    090716 G56  0.3-  0.8-    090727 H45  0.1-  0.2+
090712 160  0.1-  0.0     090716 G56  0.9-  0.7+    090727 H45  0.4-  0.5-
090712 204  0.1-  0.1-    090716 G56  0.3+  1.0+    090727 H45  0.3+  0.3-
090712 204  0.1-  0.1-    090716 A81  0.2+  0.1-    090727 H45  0.4-  0.3+
090712 J75  0.2-  0.1-    090716 A81  0.0   0.1+    090728 703  0.1+  0.6+
090712 J75  0.1-  0.1-    090716 A81  0.6-  0.6-    090728 703  0.8-  1.0+
090712 J75  0.1-  0.1-    090716 587  0.7+  0.1+    090728 703  0.3-  0.3+
090712 I77  0.5-  0.0     090716 587  0.2+  0.0     090728 160  0.1+  0.4-
090713 I77  0.4-  0.4+    090716 587  0.4+  0.1+    090728 160  0.1-  0.2+
090713 I77  0.2+  0.4+    090717 G56  0.5-  0.3-    090728 160  0.0   0.0
090713 H26  0.4-  0.3+    090717 G56  0.1-  0.2+    090729 H26  1.3+  0.7-
090713 H26  0.6-  0.5+    090717 G56  0.1+  0.5-    090729 H26  1.0+  0.4-
090713 H26  0.9-  0.3+    090720 H55  0.0   0.0     090729 H26  1.1+  0.1-
090713 H26  0.6-  0.1+    090720 H55  0.0   0.0     090729 H26  0.8+  0.8-
090713 H26  0.9-  0.2+    090720 H55  0.1+  0.0     090730 H55  0.2+  0.0
090713 H26  0.4+  0.6+    090720 H55  0.1-  0.1+    090730 H55  0.3+  0.2+
090713 H26  1.0+  0.6+    090720 H55  0.0   0.1+    090730 H55  0.2+  0.0
090713 H26  0.8+  0.2+    090720 130  0.0   0.1+    090730 H55  0.0   0.2+
090713 673  0.1+  0.1+    090720 130  0.4+  0.1-    090801 H55  0.0   0.0
090713 673  0.0   0.2-    090720 130  0.6-  0.1-    090801 H55  0.2+  0.1+
090713 673  0.4+  0.0     090720 130  0.0   0.1-    090801 H55  0.0   0.1+
090713 673  0.2+  0.1+    090720 151  0.4-  0.2-    090801 H55  0.0   0.1+
090713 160  0.1-  0.2-    090720 151  0.2-  0.2-    090801 H55  0.1+  0.0
090713 160  0.0   0.1-    090720 587  0.0   0.3+    090803 H55  0.2-  0.0
090713 160  0.0   0.0     090720 151  0.1-  0.1+    090803 H55  0.1-  0.0
090713 160  0.2+  0.1-    090720 587  0.1+  0.3+    090803 H55  0.1-  0.2-
090713 J51  0.4-  0.4-    090720 587  0.0   0.4+    090804 932  0.5-  0.1+
090713 J51  0.1-  0.1-    090720 B28  0.4+  0.1+    090804 932  0.1-  0.3+
090713 J51  0.1+  0.3+    090720 B28  0.1-  0.1+    090804 932  0.2-  0.1+
090714 H26  0.2-  0.1+    090720 B28  0.1+  0.1-    090805 A13  0.6-  0.0
090714 H26  0.5+  0.0     090720 B28  0.4-  0.1+    090805 A13  0.5-  0.1-
090714 H26  0.2+  0.1-    090721 151  0.0   0.3-    090806 160  0.1-  0.2+
090714 H26  0.1+  0.1+    090721 151  0.0   0.4-    090806 160  0.0   0.2-
090714 H26  0.1-  0.0     090721 151  0.1-  0.4-    090806 160  0.3-  0.3-
090714 H26  0.3-  0.1-    090721 151  0.2+  0.2-    090812 691 (7.1-  2.9+)
090714 H26  0.1+  0.3+    090721 151  0.6+  0.1+    090812 691 (8.3-  2.5+)
090714 H26  0.1-  0.0     090721 151  0.3+  0.1+    090812 691 (6.7-  1.7+)
090714 H26  0.5-  0.0     090721 151  0.1-  0.2+    090814 H55  0.2-  0.0
090714 H26  0.7-  0.2+    090723 H55  0.2+  0.1+    090814 H55  0.3+  0.1+
090714 560  0.0   0.2+    090723 H55  0.2+  0.0     090814 H55  0.4+  0.1+
090714 560  0.1+  0.2+    090723 H55  0.3+  0.0     090814 H55  0.2+  0.0
090714 560  0.3+  0.2+    090723 H55  0.2+  0.1+    100216 926  0.3+  0.5-
090714 B28  0.4-  0.4-    090724 I20  0.2-  0.4-    100216 926  0.4+  0.0
090714 160  0.0   0.3-    090724 I20  0.3-  0.3-    100216 926  0.2+  0.9+
090714 160  0.1-  0.0     090724 I20  0.1-  0.2-    100217 926  0.3-  0.4-
090714 B28  0.1+  0.3-    090724 H55  0.2+  0.0     100217 926  0.6-  0.2+
090714 160  0.0   0.1+    090724 H55  0.1+  0.1+    100217 926  0.0   0.2-

Ephemeris:
2009 NJ                  a,e,i = 1.87, 0.66, 8                   q = 0.6383
Date    TT    R. A. (2000) Decl.     Delta      r     Elong.  Phase     V
2010 02 13    11 20.45   -12 30.0    1.026    1.919   144.9    17.2    21.0
2010 02 23    11 02.26   -10 53.0    1.050    1.998   157.1    11.1    20.9
2010 03 05    10 44.64   -08 49.8    1.101    2.074   164.4     7.4    20.9
2010 03 15    10 29.55   -06 37.7    1.182    2.146   160.6     8.9    21.2
2010 03 25    10 18.20   -04 32.9    1.291    2.215   150.7    12.7    21.6
2010 04 04    10 10.96   -02 46.3    1.422    2.280   139.9    16.4    22.0

Sonia Keys                   (C) Copyright 2010 MPC           M.P.E.C. 2010-D19

Read MPEC 2010-D18 Read MPEC 2010-D20


MPEC number:

Enter an MPEC number in one of the following forms:

  • 1997-B01 (the full form)
  • J97B01 (the packed version of the full form)
  • B01 (the abbreviated form)

Valid HTML 4.01!